Location: Byszew
(52.1813°N, 19.2693°E)
Time: 18:54:29
(UTC+00:00)

Cosmos 1943 Rocket - Pass Details

Date: 03 March 2021
Orbit: 811 x 844 km, 71.0° (Epoch: 17 April)

Event Time Altitude Azimuth Distance (km) Brightness Sun altitude
Rises 20:43:23 0° 328° (NNW) 3,416 6.3 -36.9°
Reaches altitude 10° 20:45:50 10° 329° (NNW) 2,477 5.3 -37.2°
Enters shadow 20:48:41 31° 330° (NNW) 1,448 3.8 -37.5°
